Powrót do katalogu

TIANLIAN 1-04

AktywnyŁącznośćGEO
NORAD 41869·PAYLOAD·🇨🇳 China

Wystrzelony Nov 22, 2016 z Xichang Satellite Launch Center

Loading…

TLE

ŚwieżeSource: Space-Track

Epoka: Sep 14, 2026, 15:44 UTC

1 41869U 16072A   26257.65621795  .00000023  00000-0  00000-0 0  9992
2 41869   1.0923  82.0828 0047004  96.1294 228.4409  1.00270772 36193

Śledź TIANLIAN 1-04 w czasie rzeczywistym z AllMySat

Download on the App Store